Volver al catálogo

COSMOS 1275 DEB

ActivoPO
NORAD 13470·DEBRIS·🇷🇺 Russia

Lanzado Jun 4, 1981 desde Plesetsk Cosmodrome

Loading…

Próximos Pases (próximas 24 horas)

TLE

ActualizadoSource: Space-Track

Época: Sep 14, 2026, 01:43 UTC

1 13470U 81053FS  26257.07174091  .00000215  00000-0  33783-3 0  9998
2 13470  82.8166 119.4552 0238841  21.8078 131.0785 13.35330087154599

Sigue COSMOS 1275 DEB en tiempo real con AllMySat

Download on the App Store